Content
SEND FEEDBACK

Daily
Averages
Monthly
Summary
United States of America

BIG WATER, UTAH


Home > North America > United States > Utah
Elevation: 4166 feet     Latitude: 37 05N     Longitude: 111 40W

WEATHER
 
SELECT A DAY
Number of Records: 194,654;   Date Range: 1/1/95 - 7/23/14
 
SHARE

PRINT THIS DATA

[ ← Previous Day ]
WEATHER ALMANAC - OCTOBER 12, 2013
[ Next Day → ]
[ °C ]   °F
Weather ElementAverageHighLow
Temperature56.8 °F69.1 °F (3:53 pm)45 °F (5:53 am)
Dewpoint32.8 °F36 °F (7:53 pm)28.9 °F (11:53 pm)
Humidity41.7 %65 % (5:53 am)25 % (3:53 pm)
Barometer29.94 in30.04 in (8:53 am)29.86 in (3:53 pm)
Wind Speed3 mph6.9 mph (1:53 pm)
Weather ElementAverage
Visibility10 mi
Wind DirectionESE (104.8 °)

Weather ElementTotal
Precipitation---
Heating Degree Days8 (Base 65)
Growing Degree Days7.1 (Base 50)
Averaged from 23 records on October 12, 2013
WEATHER CONDITIONS BREAKOUT
WIND DIRECTION BREAKOUT
WEATHER BY HOUR - OCTOBER 12, 2013
[ °C ]   °F
Local TimeTemperatureDewpointHumidityBarometerVisibilityWind DirectionWind SpeedGust SpeedPrecipitationEventsConditions
1:53 AM50.0 °F30.9 °F48 %29.97 in10.0 miCalmClear
2:53 AM48.9 °F32.0 °F52 %29.97 in10.0 miWest (270°)3.5 mphClear
3:53 AM48.0 °F32.0 °F54 %29.97 in10.0 miSW (220°)3.5 mphClear
4:53 AM48.0 °F32.0 °F54 %29.98 in10.0 miWest (270°)3.5 mphClear
5:53 AM45.0 °F34.0 °F65 %30.00 in10.0 miCalmClear
6:53 AM46.9 °F32.0 °F56 %30.03 in10.0 miCalmClear
7:53 AM51.1 °F32.0 °F48 %30.03 in10.0 miCalmClear
8:53 AM53.1 °F33.1 °F47 %30.04 in10.0 miCalmClear
9:53 AM55.9 °F35.1 °F45 %30.02 in10.0 miVariable3.5 mphClear
10:53 AM59.0 °F35.1 °F41 %30.00 in10.0 miNNW (340°)4.6 mphClear
11:53 AM62.1 °F34.0 °F35 %29.97 in10.0 miVariable3.5 mphClear
12:53 PM64.0 °F35.1 °F34 %29.94 in10.0 miVariable5.8 mphClear
1:53 PM66.9 °F33.1 °F28 %29.91 in10.0 miNNE (20°)6.9 mphClear
2:53 PM68.0 °F33.1 °F27 %29.88 in10.0 miNNE (20°)4.6 mphClear
3:53 PM69.1 °F32.0 °F25 %29.86 in10.0 miNNE (30°)3.5 mphClear
4:53 PM68.0 °F32.0 °F26 %29.86 in10.0 miNorth (360°)5.8 mphClear
5:53 PM63.0 °F33.1 °F33 %29.87 in10.0 miNE (40°)4.6 mphClear
6:53 PM60.1 °F35.1 °F39 %29.88 in10.0 miCalmClear
7:53 PM57.9 °F36.0 °F44 %29.87 in10.0 miCalmClear
8:53 PM55.9 °F34.0 °F44 %29.88 in10.0 miSW (230°)3.5 mphClear
9:53 PM54.0 °F30.9 °F41 %29.87 in10.0 miSSE (150°)4.6 mphClear
10:53 PM55.0 °F30.0 °F38 %29.87 in10.0 miSW (220°)4.6 mphClear
11:53 PM55.9 °F28.9 °F36 %29.86 in10.0 miWSW (240°)3.5 mphClear
Hourly data recorded from KPGA, located miles away from Big Water, Utah







STORIES FROM OUR PARTNERS